Regional Weather Roundup
Issued by NWS Boston, MA

Home | Current Version | Previous Version | Text Only | Print | Product List | Glossary On
Versions: 1 2 3 4 5 6 7 8 9 10 11 12 13 14 15 16 17 18 19 20 21 22 23 24 25 26 27 28 29 30 31 32 33 34 35 36 37 38 39 40 41 42 43 44 45 46 47 48
000
ASUS41 KBOX 220310
RWRBOX

REGIONAL WEATHER ROUNDUP
NATIONAL WEATHER SERVICE TAUNTON MA
1100 PM EDT THU AUG 21 2014

NOTE:  "FAIR" INDICATES FEW OR NO CLOUDS BELOW 12,000 FEET WITH NO
SIGNIFICANT WEATHER AND/OR OBSTRUCTIONS TO VISIBILITY.  THE FOLLOWING
OBSERVATION LOCATIONS DO NOT REPORT PRESENT WEATHER...PROVINCETOWN...
SMITHFIELD...BLOCK ISLAND...KEENE...AND OXFORD.

MAZALL-220400-
EASTERN MASSACHUSETTS

CITY           SKY/WX    TMP DP  RH WIND       PRES   REMARKS
BOSTON         CLOUDY    67  64  90 NE6       30.09S
BEVERLY        MOCLDY    65  62  90 CALM      30.09S
LAWRENCE       CLOUDY    64  60  87 CALM      30.11S
BEDFORD        CLOUDY    66  62  87 E5        30.08R
BLUE HILL        N/A     64  61  90 E8        30.08F
NORWOOD        CLOUDY    67  62  84 NE6       30.08S
MARSHFIELD     CLEAR     63  63 100 CALM      30.09F
PLYMOUTH       CLEAR     61  58  90 NE3       30.08F
TAUNTON        PTCLDY    65  62  90 N3        30.07S
NEW BEDFORD    CLEAR     64  62  93 NE3       30.07R
$$

MAZALL-220400-
CAPE COD AND THE ISLANDS

CITY           SKY/WX    TMP DP  RH WIND       PRES   REMARKS
FALMOUTH       CLEAR     63  61  94 NE5       30.07S
HYANNIS        CLEAR     62  59  90 CALM      30.06S
CHATHAM        CLEAR     67  62  84 NE5       30.07F
PROVINCETOWN   PTCLDY    63  61  94 MISG      30.08S
NANTUCKET      CLEAR     60  58  92 N5        30.06S
MARTHAS VNYRD  CLEAR     56  54  93 CALM      30.06S
$$

MAZALL-220400-
CENTRAL AND WESTERN MASSACHUSETTS

CITY           SKY/WX    TMP DP  RH WIND       PRES   REMARKS
WORCESTER      LGT RAIN  61  60  97 NE5       30.10S FOG
FITCHBURG      CLOUDY    60  57  89 NW5       30.11S
ORANGE         LGT RAIN  60  58  92 N6        30.09S FOG
SPRINGFIELD    CLOUDY    66  63  91 E5        30.06S
WESTFIELD      CLOUDY    68  64  87 N3        30.06R
NORTH ADAMS    CLOUDY    66  59  78 E7        30.06R
PITTSFIELD     CLOUDY    65  61  87 CALM      30.07R
$$

RIZALL-220400-
RHODE ISLAND

CITY           SKY/WX    TMP DP  RH WIND       PRES   REMARKS
PROVIDENCE     CLOUDY    69  61  75 SW3       30.08S
NEWPORT        PTCLDY    65  60  84 CALM      30.07S
BLOCK ISLAND   CLOUDY    66  61  82 E6        30.07F
SMITHFIELD     CLOUDY    66  59  77 CALM      30.09R
WESTERLY       CLOUDY    68  62  81 NE3       30.06F
$$

CTZALL-220400-
CONNECTICUT

CITY           SKY/WX    TMP DP  RH WIND       PRES   REMARKS
BRADLEY INTL   CLOUDY    69  64  84 SE5       30.05R
HARTFORD       CLOUDY    70  61  73 S6        30.06R
BRIDGEPORT     CLOUDY    71  64  78 SE8       30.05R
DANBURY        CLOUDY    68  64  87 SE3       30.08R
GROTON         MOCLDY    67  64  90 CALM      30.06S
NEW HAVEN      CLOUDY    72  63  73 S7        30.06R
CHESTER        CLOUDY    66  63  88 CALM      30.08S
MERIDEN        CLOUDY    70  62  76 SE3       30.06R
WILLIMANTIC    CLOUDY    68  62  81 CALM      30.08R
OXFORD         CLOUDY    66  61  82 S7        30.09R
$$

MEZ002-015-021-024-NHZ003-005-008-011-012-014-VTZ005-008-220400-
NORTHERN NEW ENGLAND

CITY           SKY/WX    TMP DP  RH WIND       PRES   REMARKS
PORTLAND ME    PTCLDY    61  57  87 CALM      30.12S
BANGOR ME      CLOUDY    65  58  78 S5        30.15R
CONCORD NH     HVY RAIN  56  55  97 N3        30.12R FOG
MANCHESTER NH  CLOUDY    59  56  89 NW3       30.10R
NASHUA NH      HVY RAIN  59  59 100 CALM      30.11S FOG
PORTSMOUTH NH  MOCLDY    63  61  93 NE3       30.09F
JAFFREY NH     LGT RAIN  56  54  93 VRB5      30.13S
KEENE NH       CLOUDY    59  48  67 N6        30.11S
BURLINGTON VT  CLOUDY    63  60  90 S5        30.05F
MT. WASHINGTON LGT RAIN  46  39  76 SE20        N/A
$$

NYZ052-076-220400-
EASTERN NEW YORK

CITY           SKY/WX    TMP DP  RH WIND       PRES   REMARKS
ALBANY         CLOUDY    71  62  73 S6        30.02S
NEW YORK CITY  CLOUDY    73  64  73 S13       30.02F THUNDER
$$

ANZALL-220400-
MARINE OBSERVATIONS

STATION/POSITION TIME  TEMP    WIND        PRES    VSBY  WAVE
                       AIR SEA DIR/SP/G                  HT/PER
                 (UTC) (F)     (DEG/KT/KT) (MB)    (MI)  (FT/S)
BOSTON BUOY      0250   67 66   80/  8/ 10 1018.5S         1/11
BUZZARDS BAY     0200           90/ 10/ 11 1018.7S
NANTUCKET SOUND  0250   68 71   50/  8/ 10 1017.7F         1/ 5
MASS BAY-STELLWA 0204   67 67   50/  6/  6   N/A    1 7/8  2/ 5
ISLE OF SHOALS   0200   65      20/  6/  7 1018.8F
S OF BLOCK IS    0208      69                N/A           3/ 7
$$

......................KEY.........................
  SKY/WX - SKY CONDITION/PRESENT WEATHER
  TMP    - TEMPERATURE IN FAHRENHEIT
  DWPT   - DEWPOINT IN FAHRENHEIT
  RH     - RELATIVE HUMIDITY IN PERCENT
  WIND   - DIRECTION AND SPEED IN MPH
  PRES   - MEAN SEA LEVEL PRESSURE IN INCHES OF HG
  WCI    - WIND CHILL INDEX
  VSB    - VISIBILITY IN MILES
  HX     - HEAT INDEX
  TC     - TEMPERATURE IN CELSIUS
  VRB    - VARIABLE WIND DIRECTION
  N/A    - NOT AVAILABLE



USA.gov is the U.S. government's official web portal to all federal, state and local government web resources and services.